FW8448 Weather Reports


Display with metric or nautical units.
time (UTC)temp
F
wind
direction
speed
MPH
gust
MPH
rain 1hr
in
rain 24hr
in
rain mn
in
humidity
%
barometer
mb
20260903020104 79 0 0.0 0.0 0.00 0.00 0.00 91 1016.6
20260903014604 79 0 0.0 0.0 0.00 0.00 0.00 90 1016.6
20260903013107 80 0 0.0 0.0 0.00 0.00 0.00 89 1016.6
20260903011601 80 0 0.0 0.0 0.00 0.00 0.00 89 1016.3
20260903010059 81 0 0.0 0.0 0.00 0.00 0.00 88 1016.2
20260903004600 82 0 0.0 0.0 0.00 0.00 0.00 87 1016.1
20260903003105 83 0 0.0 0.0 0.00 0.00 0.00 85 1016.0
20260903001614 84 0 0.0 1.0 0.00 0.00 0.00 82 1015.9
20260903000100 86 0 0.0 2.0 0.00 0.00 0.00 79 1016.0
20260902234621 88 0 0.0 4.0 0.00 0.00 0.00 76 1015.9
20260902233100 89 0 1.0 5.0 0.00 0.00 0.00 74 1015.8
20260902231607 90 200 1.0 4.0 0.00 0.00 0.00 74 1015.8
20260902230114 91 223 1.0 5.0 0.00 0.00 0.00 72 1015.8
20260902224603 91 226 1.0 6.0 0.00 0.00 0.00 71 1015.9
20260902223054 92 0 2.0 5.0 0.00 0.00 0.00 69 1016.0
20260902221559 92 215 1.0 4.0 0.00 0.00 0.00 69 1016.1
20260902220104 93 215 1.0 7.0 0.00 0.00 0.00 71 1016.0
20260902214610 93 240 2.0 7.0 0.00 0.00 0.00 66 1016.0
20260902213100 93 0 1.0 4.0 0.00 0.00 0.00 71 1016.1
20260902211559 93 237 2.0 7.0 0.00 0.00 0.00 67 1016.1
20260902204558 94 281 3.0 8.0 0.00 0.00 0.00 68 1016.3
20260902203058 94 248 3.0 10.0 0.00 0.00 0.00 66 1016.4
20260902201600 94 245 2.0 8.0 0.00 0.00 0.00 67 1016.5
20260902200058 93 217 3.0 9.0 0.00 0.00 0.00 67 1016.7
20260902194557 93 216 3.0 16.0 0.00 0.00 0.00 68 1017.0
20260902193104 93 293 2.0 13.0 0.00 0.00 0.00 71 1017.1
20260902191557 93 246 1.0 9.0 0.00 0.00 0.00 69 1017.2
20260902190057 93 221 2.0 6.0 0.00 0.00 0.00 71 1017.2
20260902184601 92 235 4.0 11.0 0.00 0.00 0.00 67 1017.2
20260902183105 92 169 2.0 8.0 0.00 0.00 0.00 73 1017.3
20260902181602 91 220 3.0 14.0 0.00 0.00 0.00 72 1017.5
20260902180104 91 275 4.0 12.0 0.00 0.00 0.00 70 1017.6
20260902174604 91 285 7.0 13.0 0.00 0.00 0.00 68 1017.7
20260902173105 91 211 3.0 8.0 0.00 0.00 0.00 69 1017.8
20260902171607 90 246 2.0 8.0 0.00 0.00 0.00 73 1017.9
20260902164602 89 263 4.0 9.0 0.00 0.00 0.00 73 1018.3
20260902163101 89 175 4.0 12.0 0.00 0.00 0.00 75 1018.4
20260902161602 88 224 2.0 10.0 0.00 0.00 0.00 77 1018.5
20260902160059 87 0 0.0 0.0 0.00 0.00 0.00 77 1018.4
20260902154556 87 0 0.0 0.0 0.00 0.00 0.00 78 1018.6
20260902153115 86 0 0.0 0.0 0.00 0.00 0.00 80 1018.6
20260902151556 86 0 0.0 0.0 0.00 0.00 0.00 80 1018.5
20260902144618 84 0 0.0 9.0 0.00 0.00 0.00 81 1018.5
20260902143102 83 277 3.0 10.0 0.00 0.00 0.00 84 1018.6
20260902141602 82 295 4.0 9.0 0.00 0.00 0.00 85 1018.8
20260902140058 81 0 0.0 2.0 0.00 0.00 0.00 88 1018.8
20260902134602 79 0 0.0 0.0 0.00 0.00 0.00 90 1018.9
20260902133100 78 0 0.0 0.0 0.00 0.00 0.00 92 1018.9
20260902131602 76 0 0.0 0.0 0.00 0.00 0.00 94 1018.8
20260902130057 75 0 0.0 0.0 0.00 0.00 0.00 96 1018.8
20260902124610 73 0 0.0 0.0 0.00 0.00 0.00 97 1018.9
20260902123103 72 0 0.0 0.0 0.00 0.00 0.00 97 1018.9
20260902121611 71 0 0.0 0.0 0.00 0.00 0.00 97 1018.9
20260902120110 70 0 0.0 0.0 0.00 0.00 0.00 97 1018.8
20260902114617 70 0 0.0 0.0 0.00 0.00 0.00 97 1018.6
20260902113104 70 0 0.0 0.0 0.00 0.00 0.00 97 1018.6
20260902111601 70 0 0.0 0.0 0.00 0.00 0.00 97 1018.3
20260902104556 70 0 0.0 0.0 0.00 0.00 0.00 97 1018.0
20260902103117 70 0 0.0 0.0 0.00 0.00 0.00 97 1017.8
20260902101600 70 0 0.0 0.0 0.00 0.00 0.00 97 1017.7
20260902100052 70 0 0.0 0.0 0.00 0.00 0.00 96 1017.7
20260902094600 71 0 0.0 0.0 0.00 0.00 0.00 97 1017.7
20260902093109 71 0 0.0 0.0 0.00 0.00 0.00 97 1017.6
20260902091556 71 0 0.0 0.0 0.00 0.00 0.00 97 1017.6
20260902084556 71 0 0.0 0.0 0.00 0.00 0.00 97 1017.4
20260902083055 71 0 0.0 0.0 0.00 0.00 0.00 97 1017.2
20260902081554 71 0 0.0 0.0 0.00 0.00 0.00 97 1017.1
20260902080100 71 0 0.0 0.0 0.00 0.00 0.00 96 1017.1
20260902074613 71 0 0.0 0.0 0.00 0.00 0.00 97 1017.2
20260902073105 72 0 0.0 0.0 0.00 0.00 0.00 96 1017.2
20260902071556 72 0 0.0 0.0 0.00 0.00 0.00 96 1017.3
20260902070106 72 0 0.0 0.0 0.00 0.00 0.00 96 1017.2
20260902064602 72 0 0.0 0.0 0.00 0.00 0.00 96 1017.3
20260902063058 72 0 0.0 0.0 0.00 0.00 0.00 96 1017.3
20260902061557 73 0 0.0 0.0 0.00 0.00 0.00 96 1017.4
20260902060107 73 0 0.0 0.0 0.00 0.00 0.00 96 1017.4
20260902054559 73 0 0.0 0.0 0.00 0.00 0.00 96 1017.4
20260902053105 73 0 0.0 0.0 0.00 0.00 0.00 96 1017.4
20260902051558 73 0 0.0 0.0 0.00 0.00 0.00 95 1017.3
20260902044604 74 0 0.0 0.0 0.00 0.00 0.00 95 1017.2
20260902043102 74 0 0.0 0.0 0.00 0.00 0.00 95 1017.3
20260902041556 74 0 0.0 0.0 0.00 0.00 0.00 95 1017.3
20260902040105 75 0 0.0 0.0 0.00 0.00 0.00 95 1017.4
20260902034607 75 0 0.0 0.0 0.00 0.00 0.00 94 1017.4
20260902033105 76 0 0.0 0.0 0.00 0.00 0.00 94 1017.4
20260902031559 76 0 0.0 0.0 0.00 0.00 0.00 93 1017.3
20260902030057 77 0 0.0 0.0 0.00 0.00 0.00 92 1017.4
20260902024601 78 0 0.0 0.0 0.00 0.00 0.00 92 1017.5
20260902023054 78 0 0.0 0.0 0.00 0.00 0.00 91 1017.5
20260902021603 79 0 0.0 0.0 0.00 0.00 0.00 90 1017.4